Location: Gad�tanya
(48.0500°N, 20.8500°E)
Time: 11:05:41
(UTC+00:00)

Cosmos 1269 Rocket - Pass Details

Date: 05 July 2020
Orbit: 773 x 779 km, 74.1° (Epoch: 14 August)

Event Time Altitude Azimuth Distance (km) Brightness Sun altitude
Exits shadow 23:40:05 32° 179° (S) 1,308 4.7 -18.1°
Maximum altitude 23:42:29 65° 108° (ESE) 850 4.2 -18.0°
Drops below altitude 10° 23:47:43 10° 28° (NNE) 2,330 7.7 -17.7°
Sets 23:50:07 0° 25° (NNE) 3,261 8.9 -17.6°
